"2010-08-03 00:00:00",37741,17.45,332.6,0.47,0.126,20.45,108.1738,20.21,21.06,43.91,0,110.7,13.23,21.03,294.6
"2010-08-03 00:00:30",37742,17.27,332.3,0.436,0.085,20.68,108.1729,20.2,21.06,43.54,0,110.7,13.23,21.03,294.3
"2010-08-03 00:01:00",37743,17.15,332.8,0.519,0.064,20.79,108.1764,20.21,21.09,43.46,0,110.7,13.23,21.03,294.8
"2010-08-03 00:01:30",37744,17.23,332.5,0.667,0.147,20.77,108.1991,20.27,21.11,43,0,110.7,13.23,21.09,294.5
"2010-08-03 00:02:00",37745,17.11,332.5,0.314,0.109,20.48,108.2085,20.29,21.13,43.15,0,110.7,13.23,21.12,294.5
"2010-08-03 00:02:30",37746,17.32,332.5,0.319,0.136,20.45,108.2073,20.29,21.15,43.18,0,110.7,13.23,21.11,294.5
"2010-08-03 00:03:00",37747,17.14,333.6,0.302,0.12,20.57,108.2138,20.31,21.18,42.95,0,110.7,13.23,21.13,295.6
"2010-08-03 00:03:30",37748,16.9,333.8,0.422,0.249,20.55,108.2367,20.37,21.19,42.89,0,110.7,13.23,21.19,295.8
"2010-08-03 00:04:00",37749,17.25,334.1,0.213,0.096,20.43,108.2435,20.38,21.2,42.85,0,110.7,13.23,21.21,296.1
"2010-08-03 00:04:30",37750,17.19,333.7,0.349,0.119,20.45,108.2465,20.39,21.22,42.72,0,110.7,13.23,21.22,295.7
"2010-08-03 00:05:00",37751,16.78,333.7,0.344,0.151,20.51,108.2481,20.4,21.24,42.69,0,110.7,13.24,21.22,295.7
"2010-08-03 00:05:30",37752,16.84,333,0.556,0.09,20.54,108.2481,20.4,21.26,42.75,0,110.7,13.24,21.22,295.0
"2010-08-03 00:06:00",37753,16.74,332.4,0.037,0.123,20.44,108.2496,20.4,21.26,42.88,0,110.7,13.24,21.22,294.4
"2010-08-03 00:06:30",37754,16.8,332.8,0.527,0.107,20.45,108.2566,20.42,21.27,42.56,0,110.7,13.24,21.24,294.8
"2010-08-03 00:07:00",37755,17.12,332.4,0.191,0.152,20.38,108.2557,20.42,21.27,42.76,0,110.7,13.25,21.24,294.4
"2010-08-03 00:07:30",37756,17.3,332.3,0.192,0.132,20.46,108.26,20.43,21.28,42.45,0,110.7,13.25,21.25,294.3
"2010-08-03 00:08:00",37757,17.34,332.3,0.188,0.124,20.47,108.2564,20.42,21.28,42.4,0,110.7,13.25,21.24,294.3
"2010-08-03 00:08:30",37758,17.66,332.3,0.377,0.094,20.34,108.2409,20.38,21.27,42.66,0,110.7,13.25,21.20,294.3
"2010-08-03 00:09:00",37759,17.6,331.8,0.523,0.257,20.26,108.2289,20.35,21.25,42.92,0,110.7,13.25,21.17,293.8
"2010-08-03 00:09:30",37760,17.18,331.4,0.6,0.126,20.37,108.2292,20.35,21.24,43.05,0,110.7,13.25,21.17,293.4
"2010-08-03 00:10:00",37761,17.13,331.4,0.263,0.135,20.41,108.226,20.34,21.24,43.14,0,110.7,13.25,21.16,293.4
"2010-08-03 00:10:30",37762,17.21,331.3,0.037,0.112,20.41,108.2025,20.28,21.2,43.21,0,110.7,13.25,21.10,293.3
"2010-08-03 00:11:00",37763,17.17,330.8,0.532,0.125,20.4,108.1976,20.27,21.19,43.31,0,110.7,13.25,21.09,292.8
"2010-08-03 00:11:30",37764,16.93,329.6,0.597,0.169,20.38,108.1985,20.27,21.17,43.46,0,110.7,13.25,21.09,291.6
"2010-08-03 00:12:00",37765,16.88,328.7,0.524,0.214,20.38,108.1985,20.27,21.16,43.5,0,110.7,13.25,21.09,290.7
"2010-08-03 00:12:30",37766,17.11,328.9,0.622,0.118,20.31,108.1988,20.27,21.15,43.61,0,110.7,13.25,21.09,290.9
"2010-08-03 00:13:00",37767,16.88,327.5,0.877,0.114,20.39,108.1963,20.26,21.14,43.68,0,110.7,13.25,21.09,289.5
"2010-08-03 00:13:30",37768,16.84,326.3,0.55,0.111,20.4,108.1982,20.27,21.14,43.77,0,110.7,13.25,21.09,288.3
"2010-08-03 00:14:00",37769,16.99,326.5,1.104,0.236,20.12,108.1997,20.27,21.14,43.6,0,110.7,13.25,21.09,288.5
"2010-08-03 00:14:30",37770,17.18,326.6,0.474,0.106,20.14,108.1994,20.27,21.16,43.58,0,110.7,13.25,21.09,288.6
"2010-08-03 00:15:00",37771,16.9,326.3,0.729,0.162,20.26,108.2003,20.27,21.14,43.65,0,110.7,13.25,21.10,288.3
"2010-08-03 00:15:30",37772,17.05,327.2,0.501,0.115,20.25,108.1985,20.27,21.14,43.58,0,110.7,13.25,21.09,289.2
"2010-08-03 00:16:00",37773,16.86,327.5,0.283,0.166,20.22,108.2003,20.27,21.13,43.57,0,110.7,13.25,21.10,289.5
"2010-08-03 00:16:30",37774,16.82,325.7,0.59,0.089,20.38,108.2,20.27,21.15,43.65,0,110.7,13.24,21.10,287.7
"2010-08-03 00:17:00",37775,16.87,327,0.765,0.082,20.24,108.2,20.27,21.14,43.59,0,110.7,13.24,21.10,289.0
"2010-08-03 00:17:30",37776,16.96,328.1,0.17,0.105,20.07,108.2006,20.27,21.16,43.57,0,110.7,13.24,21.10,290.1
"2010-08-03 00:18:00",37777,16.93,328.2,0.479,0.08,20.13,108.2,20.27,21.16,43.56,0,110.7,13.24,21.10,290.2
"2010-08-03 00:18:30",37778,16.79,328.4,0.569,0.109,20.22,108.2003,20.27,21.15,43.64,0,110.7,13.24,21.10,290.4
"2010-08-03 00:19:00",37779,16.76,328,0.434,0.083,20.39,108.2006,20.27,21.16,43.59,0,110.7,13.24,21.10,290.0
"2010-08-03 00:19:30",37780,16.74,327.8,0.701,0.186,20.4,108.2009,20.28,21.15,43.6,0,110.7,13.24,21.10,289.8
"2010-08-03 00:20:00",37781,16.73,328,0.711,0.106,20.44,108.1897,20.25,21.14,43.65,0,110.7,13.24,21.07,290.0
"2010-08-03 00:20:30",37782,16.62,328.3,0.651,0.09,20.6,108.17,20.2,21.13,43.58,0,110.7,13.24,21.02,290.3
"2010-08-03 00:21:00",37783,16.51,328.4,0.507,0.104,20.62,108.1684,20.19,21.11,43.59,0,110.7,13.24,21.01,290.4
"2010-08-03 00:21:30",37784,16.45,328.3,0.452,0.059,20.73,108.1671,20.19,21.1,43.57,0,110.7,13.24,21.01,290.3
"2010-08-03 00:22:00",37785,16.39,328.5,0.523,0.094,20.62,108.1699,20.2,21.09,43.55,0,110.7,13.25,21.02,290.5
"2010-08-03 00:22:30",37786,16.6,330.1,0.583,0.104,20.47,108.1705,20.2,21.1,43.41,0,110.7,13.25,21.02,292.1
"2010-08-03 00:23:00",37787,16.48,330.4,0.8,0.172,20.42,108.1726,20.2,21.09,43.35,0,110.7,13.25,21.02,292.4
"2010-08-03 00:23:30",37788,16.49,330,0.469,0.064,20.35,108.1723,20.2,21.1,43.29,0,110.7,13.25,21.02,292.0
"2010-08-03 00:24:00",37789,16.41,330.5,0.425,0.06,20.3,108.1797,20.22,21.1,43.22,0,110.7,13.25,21.04,292.5
"2010-08-03 00:24:30",37790,16.31,330.9,0.522,0.101,20.34,108.2009,20.28,21.1,43.17,0,110.7,13.25,21.10,292.9
"2010-08-03 00:25:00",37791,16.14,331.1,0.439,0.059,20.43,108.2082,20.29,21.12,43.07,0,110.7,13.25,21.12,293.1
"2010-08-03 00:25:30",37792,15.9,332.3,0.312,0.072,20.34,108.2079,20.29,21.13,42.97,0,110.7,13.25,21.12,294.3
"2010-08-03 00:26:00",37793,15.97,331.5,0.394,0.059,20.39,108.2103,20.3,21.14,42.9,0,110.7,13.25,21.12,293.5
"2010-08-03 00:26:30",37794,15.91,332.4,0.265,0.095,20.31,108.2289,20.35,21.15,42.79,0,110.7,13.25,21.17,294.4
"2010-08-03 00:27:00",37795,15.88,332.5,0.574,0.1,20.31,108.2395,20.37,21.17,42.72,0,110.7,13.25,21.20,294.5
"2010-08-03 00:27:30",37796,16.04,332.4,0.425,0.108,20.46,108.2423,20.38,21.19,42.47,0,110.7,13.25,21.20,294.4
"2010-08-03 00:28:00",37797,15.86,332.9,0.529,0.135,20.47,108.2508,20.4,21.22,42.39,0,110.7,13.25,21.23,294.9
"2010-08-03 00:28:30",37798,15.9,332,0.501,0.107,20.39,108.2756,20.47,21.24,42.36,0,110.7,13.25,21.29,294.0
"2010-08-03 00:29:00",37799,15.95,331.7,0.527,0.092,20.38,108.2761,20.47,21.27,42.16,0,110.7,13.25,21.29,293.7
"2010-08-03 00:29:30",37800,16.02,333,0.501,0.079,20.28,108.2823,20.48,21.28,42.21,0,110.7,13.25,21.31,295.0
"2010-08-03 00:30:00",37801,15.99,333.8,0.737,0.083,20.19,108.2898,20.5,21.3,42.25,0,110.7,13.25,21.33,295.8
"2010-08-03 00:30:30",37802,15.86,333.9,0.627,0.227,20.17,108.3038,20.54,21.32,42.23,0,110.7,13.25,21.36,295.9
"2010-08-03 00:31:00",37803,15.58,334.6,0.532,0.083,20.09,108.3084,20.55,21.35,42.23,0,110.7,13.25,21.37,296.6
"2010-08-03 00:31:30",37804,15.53,334.5,0.554,0.12,20.17,108.3102,20.56,21.35,41.85,0,110.7,13.25,21.38,296.5
"2010-08-03 00:32:00",37805,15.66,334.5,0.555,0.094,20.4,108.309,20.55,21.36,41.46,0,110.7,13.25,21.38,296.5
"2010-08-03 00:32:30",37806,15.93,335.6,0.523,0.124,20.05,108.3112,20.56,21.39,40.81,0,110.7,13.25,21.38,297.6
"2010-08-03 00:33:00",37807,15.9,334.8,0.504,0.082,20.13,108.3186,20.58,21.41,40.5,0,110.7,13.25,21.40,296.8
"2010-08-03 00:33:30",37808,15.78,333.5,1.113,0.14,20.2,108.3318,20.61,21.42,41.02,0,110.7,13.25,21.43,295.5
"2010-08-03 00:34:00",37809,15.72,332.6,0.597,0.111,20.27,108.3428,20.64,21.42,41.23,0,110.7,13.25,21.46,294.6
"2010-08-03 00:34:30",37810,15.49,334,0.698,0.161,20.21,108.3422,20.64,21.44,40.9,0,110.7,13.24,21.46,296.0
"2010-08-03 00:35:00",37811,15.32,333.6,0.309,0.107,20.19,108.3414,20.64,21.46,41.02,0,110.7,13.25,21.46,295.6
"2010-08-03 00:35:30",37812,15.38,333.2,0.485,0.138,20.17,108.3493,20.66,21.48,40.92,0,110.7,13.25,21.48,295.2
"2010-08-03 00:36:00",37813,15.55,333.1,0.613,0.066,20.18,108.3657,20.7,21.48,40.74,0,110.7,13.24,21.52,295.1
"2010-08-03 00:36:30",37814,15.34,333.7,0.433,0.108,20.23,108.3726,20.72,21.49,40.84,0,110.7,13.25,21.54,295.7
"2010-08-03 00:37:00",37815,15.25,332.8,0.53,0.102,20.34,108.3729,20.72,21.52,40.8,0,110.7,13.24,21.54,294.8
"2010-08-03 00:37:30",37816,15.09,332.1,0.545,0.06,20.29,108.372,20.71,21.53,40.9,0,110.7,13.24,21.54,294.1
"2010-08-03 00:38:00",37817,15.3,331.2,0.362,0.116,20.49,108.3723,20.71,21.52,41.17,0,110.7,13.25,21.54,293.2
"2010-08-03 00:38:30",37818,15.4,331.3,0.657,0.093,20.34,108.3702,20.71,21.53,40.95,0,110.7,13.25,21.53,293.3
"2010-08-03 00:39:00",37819,15.4,330.9,0.681,0.093,20.32,108.3477,20.65,21.53,40.87,0,110.7,13.25,21.48,292.9
"2010-08-03 00:39:30",37820,15.31,329.3,0.563,0.063,20.47,108.3403,20.63,21.53,41.17,0,110.7,13.25,21.46,291.3
"2010-08-03 00:40:00",37821,15.3,329.5,0.749,0.12,20.43,108.337,20.62,21.51,41.13,0,110.7,13.25,21.45,291.5
"2010-08-03 00:40:30",37822,15.21,327.9,0.328,0.066,20.52,108.3391,20.63,21.5,41.51,0,110.8,13.25,21.45,289.9
"2010-08-03 00:41:00",37823,15.02,328.5,0.515,0.083,20.52,108.3382,20.63,21.5,41.32,0,110.8,13.25,21.45,290.5
"2010-08-03 00:41:30",37824,14.95,329.1,0.269,0.085,20.51,108.3385,20.63,21.5,41.48,0,110.8,13.25,21.45,291.1
"2010-08-03 00:42:00",37825,14.92,329.6,0.498,0.062,20.55,108.3409,20.63,21.49,41.48,0,110.7,13.25,21.46,291.6
"2010-08-03 00:42:30",37826,14.81,329.5,0.555,0.116,20.53,108.3406,20.63,21.47,41.34,0,110.8,13.25,21.46,291.5
"2010-08-03 00:43:00",37827,14.83,330.6,0.508,0.079,20.49,108.3418,20.64,21.48,41.09,0,110.8,13.25,21.46,292.6
"2010-08-03 00:43:30",37828,14.66,331.3,0.193,0.053,20.5,108.3412,20.64,21.47,41.12,0,110.8,13.25,21.46,293.3
"2010-08-03 00:44:00",37829,14.88,331.5,0.516,0.179,20.38,108.3353,20.62,21.49,41.09,0,110.8,13.25,21.44,293.5
"2010-08-03 00:44:30",37830,15.05,332.3,0.952,0.204,19.91,108.309,20.55,21.47,41.64,0,110.7,13.25,21.38,294.3
"2010-08-03 00:45:00",37831,15,331.2,0.432,0.165,19.97,108.285,20.49,21.44,42.23,0,110.8,13.25,21.31,293.2
"2010-08-03 00:45:30",37832,15.09,331.3,0.263,0.22,20.28,108.2715,20.46,21.4,41.6,0,110.8,13.25,21.28,293.3
"2010-08-03 00:46:00",37833,15.16,330.8,0.595,0.194,20,108.2619,20.43,21.39,42.18,0,110.8,13.25,21.25,292.8
"2010-08-03 00:46:30",37834,15,330.9,0.56,0.179,20.45,108.2437,20.39,21.35,41.53,0,110.8,13.25,21.21,292.9
"2010-08-03 00:47:00",37835,15.17,330.9,0.514,0.146,20.34,108.2631,20.43,21.34,41.38,0,110.8,13.25,21.26,292.9
"2010-08-03 00:47:30",37836,15.15,329.9,0.452,0.082,20.2,108.2706,20.45,21.34,41.65,0,110.8,13.25,21.28,291.9
"2010-08-03 00:48:00",37837,15.2,329.1,0.436,0.123,20.43,108.275,20.47,21.33,41.37,0,110.8,13.25,21.29,291.1
"2010-08-03 00:48:30",37838,15.26,329,0.322,0.142,20.62,108.3018,20.53,21.36,41.17,0,110.8,13.25,21.36,291.0
"2010-08-03 00:49:00",37839,15.4,327.6,0.916,0.145,20.41,108.3309,20.61,21.4,41.1,0,110.8,13.25,21.43,289.6
"2010-08-03 00:49:30",37840,15.26,326.7,0.504,0.127,20.28,108.3508,20.66,21.43,41.16,0,110.8,13.25,21.48,288.7
"2010-08-03 00:50:00",37841,15.58,327.1,0.488,0.133,20.31,108.3744,20.72,21.46,41.07,0,110.8,13.25,21.54,289.1
"2010-08-03 00:50:30",37842,15.41,326.8,0.574,0.147,20.29,108.3878,20.75,21.51,41.06,0,110.8,13.25,21.58,288.8
"2010-08-03 00:51:00",37843,15.5,328.3,0.407,0.14,20.33,108.4042,20.8,21.55,40.87,0,110.8,13.25,21.62,290.3
"2010-08-03 00:51:30",37844,15.76,329.2,0.276,0.186,20.29,108.4108,20.81,21.57,40.74,0,110.8,13.25,21.64,291.2
"2010-08-03 00:52:00",37845,16.01,328.8,0.519,0.116,20.23,108.4381,20.88,21.62,40.88,0,110.8,13.25,21.71,290.8
"2010-08-03 00:52:30",37846,15.92,327.6,0.324,0.146,20.18,108.4389,20.89,21.64,41.18,0,110.8,13.25,21.71,289.6
"2010-08-03 00:53:00",37847,15.94,327.2,0.455,0.187,20.14,108.4392,20.89,21.66,41.43,0,110.8,13.25,21.71,289.2
"2010-08-03 00:53:30",37848,15.89,326.3,0.378,0.114,20.39,108.4371,20.88,21.69,41.52,0,110.8,13.25,21.71,288.3
"2010-08-03 00:54:00",37849,15.61,325.7,0.505,0.109,20.44,108.446,20.9,21.71,41.44,0,110.8,13.25,21.73,287.7
"2010-08-03 00:54:30",37850,15.43,325.2,0.352,0.13,20.44,108.4698,20.97,21.72,41.27,0,110.8,13.25,21.79,287.2
"2010-08-03 00:55:00",37851,15.34,325.7,0.507,0.137,20.54,108.4704,20.97,21.76,41.17,0,110.8,13.25,21.79,287.7
"2010-08-03 00:55:30",37852,14.99,325.6,0.701,0.219,20.56,108.4983,21.04,21.79,41.03,0,110.8,13.25,21.86,287.6
"2010-08-03 00:56:00",37853,14.76,325.3,0.494,0.133,20.67,108.5054,21.06,21.83,40.78,0,110.8,13.25,21.88,287.3
"2010-08-03 00:56:30",37854,14.89,324.6,0.486,0.093,20.84,108.5323,21.13,21.87,40.68,0,110.8,13.25,21.95,286.6
"2010-08-03 00:57:00",37855,14.65,324.1,0.503,0.168,20.66,108.5471,21.16,21.9,40.51,0,110.8,13.25,21.99,286.1
"2010-08-03 00:57:30",37856,14.23,323.1,0.703,0.126,20.87,108.5702,21.22,21.96,40.17,0,110.8,13.25,22.05,285.1
"2010-08-03 00:58:00",37857,14.23,322.5,0.48,0.104,20.79,108.601,21.3,21.99,40.02,0,110.8,13.25,22.13,284.5
"2010-08-03 00:58:30",37858,14.04,321.9,0.343,0.164,20.84,108.6246,21.36,22.04,39.72,0,110.8,13.25,22.19,283.9
"2010-08-03 00:59:00",37859,14.02,322.5,0.565,0.117,20.88,108.645,21.41,22.11,39.52,0,110.8,13.25,22.24,284.5
"2010-08-03 00:59:30",37860,13.94,323.2,0.187,0.094,20.86,108.6706,21.48,22.16,39.4,0,110.8,13.25,22.31,285.2
"2010-08-03 01:00:00",37861,13.92,323.3,0.463,0.112,20.84,108.6938,21.54,22.21,39.26,0,110.8,13.25,22.37,285.3
"2010-08-03 01:00:30",37862,13.73,323.7,0.519,0.134,20.87,108.7044,21.57,22.27,39.03,0,110.8,13.25,22.39,285.7
"2010-08-03 01:01:00",37863,13.66,324.5,0.533,0.112,20.71,108.7292,21.63,22.32,38.94,0,110.8,13.25,22.46,286.5
"2010-08-03 01:01:30",37864,13.73,324.8,0.913,0.17,20.81,108.7318,21.64,22.37,38.84,0,110.8,13.25,22.47,286.8
"2010-08-03 01:02:00",37865,13.71,325,0.632,0.193,20.83,108.7538,21.69,22.41,38.65,0,110.8,13.25,22.52,287.0
"2010-08-03 01:02:30",37866,13.64,325.4,0.403,0.166,20.88,108.7578,21.7,22.46,38.45,0,110.8,13.25,22.53,287.4
"2010-08-03 01:03:00",37867,13.6,325.6,0.757,0.221,20.95,108.759,21.71,22.49,38.29,0,110.8,13.25,22.54,287.6
"2010-08-03 01:03:30",37868,13.5,325.3,0.643,0.156,20.92,108.7853,21.77,22.52,38.08,0,110.8,13.25,22.60,287.3
"2010-08-03 01:04:00",37869,13.6,325.2,0.639,0.118,20.95,108.786,21.78,22.55,37.96,0,110.8,13.25,22.60,287.2
"2010-08-03 01:04:30",37870,13.57,324.8,0.589,0.105,20.85,108.7978,21.81,22.6,37.83,0,110.8,13.25,22.64,286.8
"2010-08-03 01:05:00",37871,13.52,324.9,0.585,0.077,20.89,108.8156,21.85,22.63,37.69,0,110.8,13.25,22.68,286.9
"2010-08-03 01:05:30",37872,13.33,324.2,0.634,0.116,20.98,108.8164,21.85,22.64,37.57,0,110.8,13.25,22.68,286.2
"2010-08-03 01:06:00",37873,13.55,324.4,0.358,0.177,20.9,108.8261,21.88,22.68,37.43,0,110.8,13.25,22.71,286.4
"2010-08-03 01:06:30",37874,13.54,324.6,0.471,0.112,20.85,108.8487,21.94,22.71,37.33,0,110.8,13.25,22.77,286.6
"2010-08-03 01:07:00",37875,13.24,324.6,0.55,0.111,20.97,108.8493,21.94,22.74,37.22,0,110.8,13.24,22.77,286.6
"2010-08-03 01:07:30",37876,13.28,325,0.57,0.173,20.98,108.8495,21.94,22.77,37.16,0,110.8,13.24,22.77,287.0
"2010-08-03 01:08:00",37877,13.34,325.1,0.675,0.281,21,108.8543,21.95,22.79,37.09,0,110.8,13.24,22.78,287.1
"2010-08-03 01:08:30",37878,12.97,324.7,0.818,0.142,21.04,108.8773,22.01,22.81,36.98,0,110.8,13.24,22.84,286.7
"2010-08-03 01:09:00",37879,12.87,324.6,0.52,0.113,21.03,108.8821,22.02,22.83,36.9,0,110.8,13.24,22.85,286.6
"2010-08-03 01:09:30",37880,12.79,325,0.497,0.093,21.04,108.8821,22.02,22.85,36.84,0,110.8,13.23,22.85,287.0
"2010-08-03 01:10:00",37881,12.83,324.7,0.499,0.086,21.05,108.8827,22.02,22.89,36.78,0,110.8,13.24,22.85,286.7
"2010-08-03 01:10:30",37882,12.87,324.1,0.558,0.084,21.03,108.8886,22.04,22.9,36.72,0,110.8,13.23,22.87,286.1
"2010-08-03 01:11:00",37883,12.74,324.2,0.5,0.139,20.98,108.903,22.08,22.91,36.72,0,110.8,13.23,22.91,286.2
"2010-08-03 01:11:30",37884,12.84,326,0.912,0.184,20.98,108.9151,22.11,22.92,36.7,0,110.8,13.24,22.94,288.0
"2010-08-03 01:12:00",37885,12.89,326.1,0.624,0.211,21.01,108.9159,22.11,22.94,36.65,0,110.8,13.24,22.94,288.1
"2010-08-03 01:12:30",37886,13.06,326,0.77,0.261,20.95,108.9159,22.11,22.94,36.7,0,110.8,13.24,22.94,288.0
"2010-08-03 01:13:00",37887,13.15,325.3,0.883,0.246,20.99,108.9159,22.11,22.96,36.66,0,110.8,13.24,22.94,287.3
"2010-08-03 01:13:30",37888,13.49,325.3,0.597,0.193,20.91,108.9159,22.11,22.96,36.71,0,110.8,13.24,22.94,287.3
"2010-08-03 01:14:00",37889,13.47,325.5,0.484,0.162,20.92,108.9159,22.11,22.96,36.77,0,110.8,13.25,22.94,287.5
"2010-08-03 01:14:30",37890,13.43,326,0.912,0.191,20.99,108.9159,22.11,22.96,36.71,0,110.8,13.24,22.94,288.0
"2010-08-03 01:15:00",37891,13.47,325.2,0.478,0.131,20.95,108.9159,22.11,22.97,36.72,0,110.8,13.25,22.94,287.2
"2010-08-03 01:15:30",37892,13.53,324.3,0.428,0.167,20.97,108.9159,22.11,22.98,36.79,0,110.8,13.25,22.94,286.3
"2010-08-03 01:16:00",37893,13.47,324.4,0.499,0.15,20.99,108.9159,22.11,22.97,36.77,0,110.8,13.24,22.94,286.4
"2010-08-03 01:16:30",37894,13.13,324.8,0.517,0.108,21.13,108.9159,22.11,22.98,36.69,0,110.8,13.24,22.94,286.8
"2010-08-03 01:17:00",37895,13.07,325.4,0.839,0.111,21.1,108.9159,22.11,22.99,36.7,0,110.8,13.24,22.94,287.4
"2010-08-03 01:17:30",37896,12.86,325.8,0.49,0.054,21.05,108.9258,22.14,23.01,36.74,0,110.8,13.24,22.96,287.8
"2010-08-03 01:18:00",37897,12.99,325.7,0.552,0.115,21.04,108.9387,22.17,23,36.74,0,110.8,13.24,23.00,287.7
"2010-08-03 01:18:30",37898,13.03,326.4,0.194,0.076,21,108.9463,22.19,23.01,36.75,0,110.8,13.24,23.02,288.4
"2010-08-03 01:19:00",37899,13.07,327,0.543,0.041,21.05,108.9497,22.2,23.02,36.76,0,110.8,13.24,23.03,289.0
"2010-08-03 01:19:30",37900,12.91,327.4,0.395,0.084,21.04,108.9497,22.2,23.03,36.7,0,110.8,13.24,23.03,289.4
"2010-08-03 01:20:00",37901,12.76,327.6,0.494,0.109,21.14,108.9497,22.2,23.03,36.55,0,110.8,13.24,23.03,289.6
"2010-08-03 01:20:30",37902,12.77,327.9,0.417,0.12,21.14,108.95,22.2,23.05,36.47,0,110.8,13.24,23.03,289.9
"2010-08-03 01:21:00",37903,12.43,328.4,0.483,0.095,21.29,108.9688,22.25,23.08,36.31,0,110.8,13.24,23.08,290.4
"2010-08-03 01:21:30",37904,12.55,328.8,0.514,0.201,21.24,108.9834,22.28,23.08,36.16,0,110.9,13.24,23.11,290.8
"2010-08-03 01:22:00",37905,12.44,329,0.483,0.16,21.28,108.9825,22.28,23.1,36.02,0,110.8,13.24,23.11,291.0
"2010-08-03 01:22:30",37906,12.22,329.2,0.513,0.094,21.28,109.0003,22.33,23.12,35.85,0,110.9,13.24,23.16,291.2
"2010-08-03 01:23:00",37907,12.31,329.2,0.477,0.131,21.25,109.0149,22.36,23.15,35.77,0,110.9,13.24,23.19,291.2
"2010-08-03 01:23:30",37908,12.39,329.1,0.32,0.114,21.24,109.0154,22.37,23.17,35.68,0,110.9,13.23,23.20,291.1
"2010-08-03 01:24:00",37909,12.47,329.3,0.544,0.053,21.25,109.0116,22.36,23.19,35.67,0,110.9,13.23,23.19,291.3
"2010-08-03 01:24:30",37910,12.69,328.9,0.504,0.179,21.1,109.0141,22.36,23.21,35.78,0,110.9,13.23,23.19,290.9
"2010-08-03 01:25:00",37911,12.72,328.2,0.237,0.1,21.07,109.0099,22.35,23.22,35.92,0,110.9,13.23,23.18,290.2
"2010-08-03 01:25:30",37912,12.47,328.3,0.292,0.123,21.23,109.0137,22.36,23.23,35.68,0,110.9,13.23,23.19,290.3
"2010-08-03 01:26:00",37913,12.21,328.1,0.501,0.14,21.23,109.0158,22.37,23.24,35.53,0,110.9,13.23,23.20,290.1
"2010-08-03 01:26:30",37914,12.02,328.3,0.471,0.104,21.2,109.0242,22.39,23.24,35.46,0,110.9,13.23,23.22,290.3
"2010-08-03 01:27:00",37915,12.16,328.3,0.49,0.128,21.15,109.0264,22.39,23.24,35.62,0,110.9,13.23,23.22,290.3
"2010-08-03 01:27:30",37916,12.35,328.7,0.566,0.111,21.2,109.0238,22.39,23.25,35.7,0,110.9,13.23,23.22,290.7
"2010-08-03 01:28:00",37917,12.36,329.7,0.656,0.066,21.22,109.0166,22.37,23.24,35.64,0,110.9,13.23,23.20,291.7
"2010-08-03 01:28:30",37918,12.38,330.9,0.525,0.085,21.16,109.0113,22.36,23.25,35.6,0,110.9,13.23,23.19,292.9
"2010-08-03 01:29:00",37919,12.45,330.2,0.53,0.044,21.14,109.0065,22.34,23.25,35.56,0,110.9,13.23,23.17,292.2
"2010-08-03 01:29:30",37920,12.3,329.9,0.502,0.113,21.14,108.9951,22.31,23.25,35.57,0,110.9,13.23,23.14,291.9
"2010-08-03 01:30:00",37921,12.28,329.7,0.504,0.11,21.18,108.9916,22.3,23.24,35.5,0,110.9,13.24,23.13,291.7
"2010-08-03 01:30:30",37922,12.3,329.5,0.428,0.084,21.23,108.9892,22.3,23.25,35.48,0,110.9,13.24,23.13,291.5
"2010-08-03 01:31:00",37923,12.09,329.3,0.187,0.046,21.11,108.9918,22.31,23.24,35.42,0,110.9,13.24,23.13,291.3
"2010-08-03 01:31:30",37924,12.18,328.5,0.506,0.077,21.11,108.9899,22.3,23.25,35.59,0,110.9,13.24,23.13,290.5
"2010-08-03 01:32:00",37925,12.33,328.2,0.024,0.055,21.13,108.9908,22.3,23.24,35.63,0,110.9,13.24,23.13,290.2
"2010-08-03 01:32:30",37926,12.26,328.1,0.285,0.082,21.11,108.9868,22.29,23.23,35.66,0,110.9,13.24,23.12,290.1
"2010-08-03 01:33:00",37927,12.31,327.9,0.344,0.074,21.14,108.9881,22.3,23.23,35.7,0,110.9,13.24,23.13,289.9
"2010-08-03 01:33:30",37928,12.44,328.2,0.316,0.042,21.13,108.9862,22.29,23.23,35.64,0,110.9,13.24,23.12,290.2
"2010-08-03 01:34:00",37929,12.42,325,1.234,0.136,21.08,108.9859,22.29,23.23,35.64,0,110.9,13.24,23.12,287.0
"2010-08-03 01:34:30",37930,12.4,323.1,0.438,0.113,21.22,108.9853,22.29,23.21,35.6,0,110.9,13.23,23.12,285.1
"2010-08-03 01:35:00",37931,12.25,323.6,0.492,0.099,21.13,108.9844,22.29,23.21,35.62,0,110.9,13.24,23.12,285.6
"2010-08-03 01:35:30",37932,12.31,322.8,0.917,0.135,20.97,108.9835,22.28,23.22,35.84,0,110.9,13.24,23.11,284.8
"2010-08-03 01:36:00",37933,12.35,324.3,1.395,0.227,20.67,108.9775,22.27,23.19,36.34,0,110.9,13.24,23.10,286.3
"2010-08-03 01:36:30",37934,12.39,324.8,0.714,0.166,21.02,108.9473,22.19,23.19,36.19,0,110.9,13.24,23.02,286.8
"2010-08-03 01:37:00",37935,12.32,322.7,1.079,0.157,21.11,108.9479,22.19,23.15,35.88,0,110.9,13.24,23.02,284.7
"2010-08-03 01:37:30",37936,12.41,322,1.117,0.198,21.14,108.9467,22.19,23.15,35.79,0,110.9,13.24,23.02,284.0
"2010-08-03 01:38:00",37937,12.19,323.9,0.686,0.149,21.14,108.9467,22.19,23.13,35.77,0,110.9,13.24,23.02,285.9
"2010-08-03 01:38:30",37938,12.11,323.1,0.894,0.158,20.98,108.947,22.19,23.13,36.04,0,110.9,13.24,23.02,285.1
"2010-08-03 01:39:00",37939,12.12,323.5,0.867,0.302,20.95,108.9467,22.19,23.13,36.21,0,110.9,13.24,23.02,285.5
"2010-08-03 01:39:30",37940,12.3,321.3,1.549,0.33,20.44,108.9222,22.13,23.1,37.29,0,110.9,13.23,22.96,283.3
"2010-08-03 01:40:00",37941,11.74,322.9,0.935,0.208,21.15,108.9132,22.1,23.07,36.35,0,110.9,13.24,22.93,284.9
"2010-08-03 01:40:30",37942,11.58,322,0.58,0.122,21.15,108.9129,22.1,23.08,36.06,0,110.9,13.23,22.93,284.0
"2010-08-03 01:41:00",37943,11.98,320.7,3.071,0.495,21.04,108.9129,22.1,23.05,36.26,0,110.9,13.23,22.93,282.7
"2010-08-03 01:41:30",37944,11.71,321.6,0.762,0.239,21.2,108.9129,22.1,23.05,36.11,0,110.9,13.23,22.93,283.6
"2010-08-03 01:42:00",37945,11.7,321,0.743,0.157,21.12,108.9146,22.11,23.05,35.98,0,110.9,13.23,22.94,283.0
"2010-08-03 01:42:30",37946,11.28,321.5,1.054,0.244,21.29,108.9343,22.16,23.07,35.94,0,110.9,13.23,22.99,283.5
"2010-08-03 01:43:00",37947,11.67,320.3,1.285,0.334,21.18,108.9467,22.19,23.07,35.94,0,110.9,13.23,23.02,282.3
"2010-08-03 01:43:30",37948,11.8,320.9,0.818,0.187,21.2,108.9467,22.19,23.1,35.73,0,110.9,13.23,23.02,282.9
"2010-08-03 01:44:00",37949,11.9,321.3,0.565,0.115,21.25,108.9497,22.2,23.1,35.7,0,110.9,13.23,23.03,283.3
"2010-08-03 01:44:30",37950,12.03,319.3,1.545,0.198,21.16,108.9675,22.24,23.1,35.79,0,110.9,13.23,23.07,281.3
"2010-08-03 01:45:00",37951,12.23,317.8,1.295,0.212,21.16,108.9692,22.25,23.12,35.82,0,110.9,13.23,23.08,279.8
"2010-08-03 01:45:30",37952,12.13,317.7,1.047,0.177,21.22,108.9734,22.26,23.12,35.74,0,110.9,13.23,23.09,279.7
"2010-08-03 01:46:00",37953,12.31,317.8,1.152,0.243,21.1,108.9793,22.27,23.14,35.82,0,110.9,13.23,23.10,279.8
"2010-08-03 01:46:30",37954,12.68,316.2,1.71,0.263,20.89,108.9723,22.25,23.13,36.2,0,110.9,13.23,23.08,278.2
"2010-08-03 01:47:00",37955,12.84,315.8,2.217,0.406,21.12,108.9579,22.22,23.13,36,0,110.9,13.23,23.05,277.8
"2010-08-03 01:47:30",37956,13.09,315.2,1.496,0.391,21.05,108.9489,22.19,23.12,36.09,0,110.9,13.23,23.02,277.2
"2010-08-03 01:48:00",37957,13.18,314.5,0.623,0.217,21.12,108.9467,22.19,23.12,35.94,0,110.9,13.23,23.02,276.5
"2010-08-03 01:48:30",37958,13.15,314.2,0.614,0.099,21.12,108.9467,22.19,23.12,35.95,0,110.9,13.23,23.02,276.2